Theta_e
310 310 310 310 310 310 310 310 310 310 310 310 310 310 310 309 310 310 310 311 312 313 313 314 314 314 314 315 316 316 316 315 315 315 315 317 316 316 316 317 317 318 318 317 318 317 317 316 316 316 316 317 318 318 319 321 321 321 326 325 323 327 326 329 328 319 321 324 319 316 317 317 318 318 317 317 317 317 316 317 318 317 317 317 317 317 317 317
310 310 310 310 310 310 310 310 310 310 310 310 310 309 310 310 310 310 310 310 310 310 311 312 312 313 313 314 314 316 317 316 316 316 316 317 316 316 316 316 316 317 318 317 318 318 318 318 317 317 317 317 319 320 320 322 320 322 329 325 326 331 326 323 321 318 319 319 318 317 318 317 318 317 316 317 317 316 316 316 316 317 317 316 317 316 316 316
310 310 310 310 310 310 310 310 310 310 310 310 310 310 310 310 310 310 310 310 310 310 310 310 311 311 312 312 313 314 316 316 316 317 318 317 317 316 316 316 315 317 318 318 318 318 319 319 317 317 317 318 318 320 321 322 321 321 323 326 331 330 322 320 319 318 318 318 317 316 317 317 317 317 316 316 316 316 316 316 315 315 316 316 316 316 316 316
310 310 310 310 310 310 311 311 311 311 311 310 310 310 310 310 310 310 310 310 310 310 310 310 310 310 310 311 311 313 315 316 317 318 318 318 318 317 316 316 315 316 318 318 317 318 319 319 318 317 317 317 317 320 321 321 322 321 321 326 328 321 319 321 319 318 318 318 317 317 317 316 316 317 316 315 316 317 315 316 316 316 317 316 316 315 315 315
310 310 310 310 310 311 311 311 311 311 311 311 311 311 311 311 311 311 311 311 311 311 311 311 311 310 310 310 310 312 314 318 321 320 318 317 317 318 317 317 316 315 317 318 318 317 318 318 318 318 317 318 317 319 321 321 321 321 319 320 320 318 320 321 318 318 318 317 317 316 316 316 316 316 316 315 316 317 316 317 317 317 317 316 316 316 315 315
310 310 310 310 310 311 311 311 312 312 312 312 312 312 312 312 312 312 312 312 313 312 312 312 312 312 312 312 311 311 313 316 320 318 316 316 316 316 317 317 316 315 316 317 318 318 317 318 318 317 317 317 318 320 320 320 320 321 321 318 318 319 319 319 319 318 317 317 316 315 316 315 315 316 316 315 316 317 316 317 317 317 317 316 316 316 316 316
310 310 310 310 310 311 311 312 312 312 312 312 312 312 312 312 313 313 313 313 313 313 314 313 313 313 313 313 311 312 313 314 315 315 315 315 316 317 316 316 315 315 315 316 317 318 317 317 317 317 318 318 318 318 318 319 319 321 322 318 318 319 318 319 318 317 317 317 316 316 315 314 315 316 316 315 316 317 317 316 316 317 317 316 316 316 316 316
310 310 310 310 310 311 311 311 312 312 312 313 313 313 312 313 313 313 313 313 314 314 314 314 314 313 313 313 312 314 315 315 316 317 317 317 318 317 316 316 315 314 315 316 316 317 317 317 317 317 317 318 318 318 318 318 318 320 321 318 317 318 317 318 317 317 317 316 317 316 314 314 315 315 314 315 316 317 317 317 316 316 316 316 316 316 316 316
309 309 310 310 310 310 310 311 311 312 312 312 313 313 313 312 313 313 313 313 314 314 314 314 314 313 314 313 312 315 317 318 319 319 318 318 317 315 315 315 314 314 314 315 315 316 317 316 317 318 318 318 318 318 317 318 319 318 318 317 315 316 316 317 316 316 316 316 316 315 314 314 314 314 314 315 316 316 316 316 316 316 316 316 316 316 316 316
310 310 310 310 310 310 310 310 310 311 311 312 312 312 312 312 312 313 313 313 313 314 314 313 313 313 313 312 313 316 317 318 318 317 317 317 316 314 314 315 315 314 313 314 314 315 316 316 317 318 318 318 317 317 317 318 319 317 316 316 315 315 316 316 316 316 316 315 315 315 315 314 313 314 314 316 316 316 316 316 316 316 316 316 316 316 316 316
312 311 311 311 311 311 311 311 311 311 311 311 311 312 312 312 312 312 313 313 313 314 313 313 313 313 313 313 314 316 317 316 316 316 316 316 316 315 314 314 315 316 315 314 314 314 315 316 317 317 317 318 317 316 317 317 317 316 315 315 316 315 315 315 315 315 315 315 315 315 315 313 313 313 314 316 316 315 315 316 316 316 316 316 316 316 316 316
313 313 313 313 313 313 313 313 313 313 312 312 313 313 313 313 313 313 313 314 314 314 314 314 313 313 313 312 313 315 316 316 316 315 316 315 315 315 314 314 314 316 316 315 314 314 315 315 316 317 317 316 316 316 316 316 315 315 315 316 317 315 315 315 315 315 315 315 315 314 315 315 314 314 315 316 316 315 315 315 316 316 316 316 316 316 316 316
311 311 312 312 312 313 313 313 314 314 314 314 314 314 314 314 314 314 314 314 314 314 314 314 313 313 313 313 314 315 315 316 316 316 316 316 315 315 314 313 313 315 316 316 314 314 314 315 315 316 316 316 316 316 316 315 315 316 315 315 317 316 317 316 314 316 314 314 315 314 316 318 316 314 315 317 316 315 314 314 315 315 316 316 316 316 316 316
310 310 310 310 310 310 311 312 312 313 313 313 314 314 314 315 315 315 315 315 314 314 314 314 313 313 312 314 315 315 315 316 315 316 316 316 315 315 314 313 313 314 315 315 314 313 314 316 315 315 315 315 316 315 316 315 315 316 314 315 317 317 319 317 314 315 315 314 314 315 316 317 317 315 315 316 316 315 313 314 315 315 315 316 316 316 316 316
311 311 310 310 310 310 310 310 311 311 311 312 312 312 312 313 313 313 314 314 314 313 313 313 313 313 313 314 315 315 316 316 316 316 316 316 315 315 314 313 313 314 315 315 314 313 313 315 314 314 314 314 315 315 317 319 318 317 316 319 320 318 318 317 314 314 316 315 312 315 317 316 316 315 316 316 315 315 313 314 315 314 315 315 316 316 316 316
313 313 313 313 313 313 313 312 311 311 311 310 311 311 311 312 312 312 312 312 311 311 311 312 313 314 314 314 315 317 317 317 317 316 316 316 315 315 314 314 314 314 314 314 314 313 312 312 313 313 314 315 316 317 318 320 321 319 316 318 321 319 316 317 317 313 313 315 312 314 317 316 317 315 316 317 315 315 313 313 314 315 316 316 315 316 316 316
314 315 315 315 315 315 316 316 315 315 314 313 312 311 311 311 312 312 312 311 311 310 309 313 316 315 314 315 316 316 316 317 316 316 316 316 316 315 314 314 314 314 314 313 313 312 312 313 314 315 315 315 317 319 319 319 320 319 318 317 318 318 316 318 321 314 311 315 314 314 314 316 317 315 315 316 316 315 313 313 315 316 316 316 316 316 316 316
314 314 314 314 314 315 315 316 317 317 317 317 316 315 313 313 313 312 312 312 311 310 310 312 316 315 315 316 316 316 316 316 317 317 316 316 315 314 314 314 314 314 313 312 313 312 313 313 314 317 317 315 316 317 318 318 317 318 320 319 318 318 316 316 319 315 313 315 315 314 313 313 314 313 313 314 315 313 313 314 315 316 317 317 317 316 316 316
312 312 312 312 312 312 313 313 314 315 316 317 317 316 316 315 314 313 313 313 312 313 314 314 315 316 316 316 316 316 316 317 316 316 316 315 314 314 314 314 314 314 312 314 315 312 312 313 315 318 318 316 315 315 316 316 314 317 318 318 317 316 315 315 316 316 315 316 316 315 314 313 313 313 312 313 314 313 312 313 314 315 316 317 316 316 316 315
312 312 311 311 311 310 310 311 310 311 312 313 313 314 314 314 314 314 314 313 313 314 315 315 315 315 315 316 316 316 316 316 316 316 315 315 314 314 314 313 314 314 313 318 319 313 312 316 318 319 317 315 315 314 315 314 314 315 316 316 316 315 315 314 316 317 315 316 317 317 315 314 314 314 313 312 313 312 311 311 312 313 314 315 315 315 315 315
312 312 311 311 310 310 310 309 309 309 309 310 311 311 312 312 313 314 313 313 313 313 313 313 313 314 314 314 315 316 317 317 316 316 315 315 314 314 314 313 314 315 314 315 317 315 314 316 317 318 315 314 316 315 314 314 314 314 315 315 315 316 316 315 316 317 315 315 317 316 315 315 314 314 313 313 313 312 312 312 312 312 313 313 314 314 315 315
315 315 315 314 313 312 311 310 309 309 309 310 310 310 311 311 311 311 310 311 312 312 312 311 311 312 312 312 313 315 316 316 316 315 315 315 314 313 313 313 314 316 314 313 315 315 316 316 316 314 314 314 315 315 315 315 315 315 315 316 316 316 316 315 316 318 314 314 318 318 315 314 313 314 313 313 313 312 313 313 314 314 313 313 314 314 314 315
317 317 317 317 317 316 315 313 311 310 309 309 310 309 309 309 309 309 309 310 312 311 311 312 312 311 311 311 312 314 315 315 314 315 315 314 313 313 312 312 313 315 316 315 314 315 316 317 315 312 313 315 315 315 315 315 315 316 316 316 317 316 316 315 316 318 315 314 319 318 315 313 312 313 313 312 312 312 314 314 315 315 314 314 315 314 314 314
317 317 318 319 319 319 318 316 313 312 310 309 310 310 310 309 309 308 309 311 312 311 312 312 311 311 312 312 312 313 314 314 314 314 314 314 313 312 312 311 312 314 315 314 314 314 315 316 315 314 315 316 316 315 316 316 314 315 316 316 316 316 316 315 315 317 316 316 317 315 314 314 314 314 314 314 313 313 314 313 314 314 314 315 315 315 315 315
318 318 318 319 320 320 320 318 316 316 313 311 311 310 310 309 309 310 311 314 315 313 313 313 312 311 312 312 312 313 313 313 313 313 313 314 313 313 312 311 312 313 313 313 313 313 313 313 315 316 317 317 317 316 317 317 315 315 317 318 316 316 316 316 316 315 317 321 318 315 317 318 318 317 315 315 315 314 313 313 313 313 314 314 314 316 316 316
320 319 319 319 320 320 321 320 319 319 315 312 311 308 309 309 309 310 312 315 317 315 313 313 313 313 312 312 312 312 312 312 312 312 312 313 313 313 313 312 313 313 313 313 313 313 313 313 315 318 319 319 318 318 320 320 316 315 320 322 318 317 317 318 318 317 321 325 318 316 320 319 319 319 317 316 317 316 315 314 313 312 313 313 314 316 317 316
321 321 320 320 320 320 321 321 321 321 317 315 312 308 309 309 308 309 312 315 318 316 315 314 313 314 314 313 313 312 313 314 313 313 313 313 313 313 313 313 313 312 313 313 314 316 316 314 317 319 318 320 319 318 320 320 317 316 322 327 322 320 321 320 320 321 324 323 317 317 320 319 318 318 318 318 319 319 317 317 315 312 312 313 315 317 317 317
322 322 322 321 321 320 320 321 321 321 319 318 314 309 309 309 308 310 313 317 319 317 317 315 313 314 314 312 312 312 312 312 313 314 313 313 313 313 313 313 313 313 314 314 315 318 318 318 320 320 318 319 318 317 319 319 317 318 321 323 323 321 322 320 319 321 323 320 317 319 319 318 318 317 317 317 316 317 316 317 316 314 312 313 316 317 316 317
323 323 323 322 322 322 321 321 321 321 321 320 316 310 308 309 309 311 314 316 317 316 316 315 314 314 313 312 312 312 311 311 312 313 312 312 313 312 312 312 312 313 312 313 314 316 318 317 316 321 321 318 319 322 323 322 319 318 318 322 326 325 322 319 317 319 323 320 318 320 319 318 318 317 317 316 315 316 315 315 316 314 313 314 315 317 316 316
324 323 323 323 323 323 322 322 322 321 321 322 319 311 308 310 311 313 315 315 316 317 313 312 313 313 312 313 313 312 311 310 310 311 311 311 312 311 311 311 311 314 315 314 315 314 313 311 312 317 318 316 321 320 315 317 318 315 318 323 326 327 325 324 324 321 320 318 318 320 319 317 318 318 317 316 316 316 315 315 315 313 313 314 316 316 316 317
325 325 325 324 324 324 323 323 323 322 321 322 319 310 308 313 314 315 316 314 315 317 313 312 313 313 313 315 316 313 312 311 309 311 312 311 311 311 311 312 312 315 318 316 315 314 312 311 314 316 312 313 319 315 310 313 314 315 322 324 322 326 327 325 323 319 318 318 319 320 318 316 317 317 316 316 315 315 315 315 317 316 313 313 316 317 316 317
326 326 325 325 324 324 323 323 323 323 321 321 316 308 311 315 315 316 317 315 318 318 317 317 316 314 314 314 316 315 313 313 310 311 314 314 314 312 311 314 315 315 319 319 317 315 315 314 314 315 312 313 318 318 318 317 314 317 322 321 319 322 321 320 321 321 319 318 318 317 317 316 315 316 316 316 317 317 315 314 315 316 313 313 316 317 316 317
326 325 325 325 324 323 323 323 323 322 322 322 316 311 315 318 319 319 316 317 321 319 318 321 318 316 316 315 318 318 315 316 312 310 313 314 314 313 311 315 318 316 319 321 318 318 321 319 314 313 313 314 316 317 319 319 317 316 319 320 319 319 318 319 323 324 319 319 320 315 316 317 316 318 319 317 317 317 314 313 313 314 314 315 316 317 316 316
325 325 325 325 324 324 323 322 322 322 322 322 317 315 317 319 322 321 318 317 318 317 317 320 319 317 316 317 322 320 315 318 316 311 313 314 314 316 315 314 314 315 317 317 318 321 322 319 316 317 317 315 314 315 316 320 319 314 316 319 318 322 325 321 322 321 317 324 325 315 317 321 317 318 323 319 315 313 312 312 313 313 316 317 316 316 315 315
324 324 324 323 323 323 322 322 321 321 321 318 316 316 318 320 322 320 321 321 318 316 316 317 318 319 318 321 325 321 315 319 318 314 315 315 316 320 320 315 312 314 315 316 320 321 318 318 318 315 315 314 314 315 313 318 321 315 316 318 315 320 325 318 319 320 316 322 322 315 320 325 317 315 319 317 315 314 312 312 311 311 314 315 314 314 315 315
322 322 322 321 322 322 322 322 321 320 320 316 314 316 317 321 323 320 320 319 315 315 315 317 319 320 321 323 325 322 316 318 319 316 316 315 316 320 320 316 312 312 314 316 321 319 316 321 321 312 312 313 312 313 313 315 319 317 315 317 315 318 320 317 320 321 316 317 318 316 319 321 316 316 316 315 315 315 314 313 311 310 312 313 312 313 315 314
319 319 320 320 321 321 322 322 321 320 318 315 315 317 317 318 320 319 318 315 313 314 315 317 319 321 323 322 323 324 320 318 318 317 318 317 316 317 317 316 314 311 312 314 319 321 317 318 320 316 316 313 306 307 312 311 314 318 318 317 316 317 319 320 322 322 318 318 318 316 317 316 315 317 318 317 317 316 317 316 313 311 310 310 311 313 314 315
317 318 318 318 318 319 321 321 320 318 315 314 316 318 317 317 315 315 316 314 315 317 317 317 318 319 321 320 321 324 321 319 318 318 320 319 317 317 317 317 315 311 312 312 315 322 319 316 319 318 317 314 307 308 314 311 309 315 317 316 317 320 321 321 320 320 319 318 318 317 317 316 315 315 316 317 317 318 318 316 314 313 311 310 311 312 313 314
316 317 317 317 317 318 319 321 320 317 314 314 317 317 318 318 315 313 314 314 315 317 317 318 318 318 319 319 318 320 321 320 320 319 319 318 318 318 316 317 317 313 311 311 313 318 317 316 318 316 312 313 311 312 318 316 311 311 313 315 316 317 321 322 319 319 319 318 318 318 317 317 316 315 315 315 316 317 317 315 314 313 311 310 311 312 312 313
314 316 317 317 318 319 319 319 317 315 314 315 316 316 316 316 314 314 315 315 315 315 315 317 318 317 317 318 317 316 319 320 320 319 319 318 318 317 316 315 317 317 313 312 313 315 315 315 316 314 310 312 313 313 316 318 315 313 314 316 314 313 318 320 316 317 318 317 317 317 317 317 315 316 316 314 316 318 317 316 315 313 310 310 311 312 312 313
312 315 317 317 318 319 318 317 314 313 314 315 315 315 314 314 314 314 314 314 314 315 314 314 315 315 315 316 317 316 317 318 317 318 318 317 316 316 315 313 313 317 316 314 315 315 316 317 316 315 313 313 314 314 314 316 316 315 315 315 315 314 316 317 315 316 316 315 316 316 316 317 315 315 315 313 315 317 317 317 316 311 309 311 313 313 312 312
313 314 315 316 316 318 317 314 312 311 313 314 315 315 314 314 314 314 313 314 314 314 313 312 312 313 313 315 315 315 316 317 317 317 316 316 316 316 315 311 312 313 312 316 319 316 316 317 316 315 316 316 316 315 313 314 313 314 315 315 314 314 315 316 316 316 316 315 315 315 316 316 315 315 315 314 314 313 312 314 314 310 310 313 315 313 312 312
312 314 314 315 315 316 316 315 313 312 312 313 313 314 313 313 314 314 314 314 314 314 314 313 312 312 313 314 314 314 316 317 318 318 318 317 316 316 314 313 314 313 312 317 319 315 314 316 315 315 317 318 317 315 314 313 312 313 316 314 313 314 314 315 315 314 315 315 314 315 315 315 315 315 315 314 313 310 309 310 310 309 309 312 313 312 312 313
310 311 313 314 315 315 316 316 315 313 313 312 312 313 313 312 313 314 314 314 315 314 314 314 314 312 313 314 314 315 315 317 317 317 317 317 317 315 314 314 315 315 314 316 317 314 315 317 317 316 317 318 317 315 314 314 312 314 316 316 315 315 314 314 314 313 314 314 314 315 314 314 314 315 314 314 313 311 310 309 309 308 309 310 311 311 312 313
308 309 310 312 313 315 316 316 315 315 314 313 312 313 313 312 312 313 314 314 314 314 314 315 314 313 314 314 314 315 315 316 317 317 316 316 315 313 313 314 314 314 315 314 313 313 315 316 316 316 316 317 317 317 316 315 313 313 315 316 315 314 315 314 314 314 314 315 314 314 314 314 313 313 313 313 312 313 312 311 310 310 310 311 312 312 312 312
307 308 310 311 312 313 313 314 315 315 314 313 313 313 313 313 313 312 313 313 313 313 313 314 312 312 313 314 314 314 314 314 315 316 316 316 315 313 311 312 312 312 313 312 310 313 314 313 314 315 315 317 316 316 317 316 315 314 314 315 314 313 313 313 313 314 314 315 314 314 314 314 314 314 313 313 313 313 313 312 312 311 311 311 311 311 312 312
304 307 310 312 312 311 311 312 313 314 314 314 314 314 314 313 313 312 312 313 313 312 313 313 312 312 314 314 314 314 314 314 314 314 314 314 315 314 311 310 310 310 311 310 309 313 313 311 313 314 313 314 315 315 315 315 314 314 315 315 314 313 313 313 313 313 313 314 314 314 314 315 314 313 313 313 313 313 313 312 312 311 311 311 311 311 311 311
303 304 306 308 309 310 311 310 310 311 312 313 313 313 314 314 314 313 313 312 312 312 313 314 313 313 313 313 314 315 314 315 314 314 314 313 313 313 312 311 310 310 310 309 309 312 313 311 313 313 312 313 313 313 313 313 313 314 314 314 314 314 314 313 313 312 312 313 313 313 314 314 314 313 312 313 313 313 313 313 312 312 311 311 311 311 310 310
301 302 304 305 305 306 306 305 305 307 308 310 311 311 312 313 313 313 312 313 313 313 313 314 314 314 314 313 314 314 314 315 315 315 314 314 313 313 312 312 312 309 309 309 309 310 311 312 312 313 313 312 312 312 312 312 313 313 314 313 313 313 313 313 313 312 312 312 312 312 313 313 312 312 312 312 312 312 312 312 312 312 311 311 311 311 310 310
299 301 302 302 301 301 301 301 303 305 306 307 309 309 309 310 311 310 310 311 312 311 312 312 313 312 311 311 311 312 313 313 312 312 311 310 310 312 312 313 314 311 309 309 309 308 310 313 313 313 313 312 312 312 312 312 312 313 313 313 313 313 313 313 312 312 312 312 312 312 312 312 311 311 311 311 311 312 311 311 311 311 311 311 311 311 310 310
298 299 299 299 299 300 301 301 302 304 305 306 308 308 309 309 308 307 307 308 310 310 309 309 307 306 306 306 308 308 307 305 304 305 304 304 306 308 309 311 313 313 311 310 310 309 309 312 313 313 313 313 313 313 312 312 312 312 312 313 313 313 313 313 312 312 313 313 312 313 313 312 311 311 311 311 311 311 311 311 311 311 311 311 311 311 310 310
296 297 297 298 298 299 300 301 301 302 303 304 305 306 307 306 304 304 305 307 308 307 306 304 304 304 304 305 306 304 302 302 302 302 302 302 303 305 306 308 310 312 311 311 310 309 309 310 311 313 314 314 314 314 313 312 312 313 313 312 312 313 313 313 313 312 312 312 313 313 313 312 311 311 311 311 311 311 311 311 311 311 311 311 311 310 310 310
Wind_Speed
8 8 8 8 8 8 8 8 9 9 9 9 9 9 8 8 7 7 7 7 7 7 7 7 7 7 7 8 8 9 10 12 12 14 16 11 9 11 9 8 6 4 4 4 3 1 1 1 0 3 4 4 5 6 6 8 8 4 2 2 3 3 4 5 4 4 2 3 3 6 8 6 3 6 8 7 10 12 11 13 14 14 18 20 19 18 15 14
8 8 8 8 7 7 7 8 8 9 9 9 9 9 9 9 9 8 8 7 7 8 8 8 8 8 8 8 8 9 11 12 14 18 17 13 13 13 11 10 8 7 5 5 4 2 1 1 1 2 5 6 5 5 5 7 9 6 3 2 4 5 6 5 4 5 1 2 5 6 8 8 6 6 7 5 8 11 10 13 15 16 18 21 23 22 20 20
8 8 8 7 7 7 7 7 7 8 8 9 9 9 9 9 9 9 9 8 8 8 9 9 9 9 9 9 9 9 10 12 16 18 14 12 15 15 13 11 9 8 7 6 5 4 3 1 2 4 7 9 7 7 7 6 7 8 5 2 7 7 6 10 8 4 2 3 3 1 5 8 8 8 7 6 8 8 10 13 14 19 24 24 25 24 23 24
8 8 8 8 8 7 7 7 7 7 7 8 8 8 9 9 9 9 9 9 9 9 9 9 9 10 10 10 10 9 10 12 13 9 5 4 8 12 13 12 11 10 9 8 6 4 3 2 4 5 7 10 9 10 8 9 8 6 7 5 7 5 4 12 12 7 5 4 4 3 3 6 9 10 9 7 5 6 14 22 21 23 28 28 28 28 27 27
9 9 8 8 8 8 8 8 7 8 8 8 8 8 8 8 9 9 9 9 10 10 10 10 10 10 11 11 10 9 8 7 4 1 5 7 7 7 10 12 13 12 12 10 7 6 4 4 6 5 6 7 7 6 8 16 14 4 8 13 14 9 5 13 15 10 10 7 6 5 4 8 8 10 15 12 7 12 19 22 22 22 24 26 29 29 30 30
10 10 9 9 9 9 9 8 8 8 8 8 9 9 9 9 9 9 10 10 10 11 11 11 11 12 13 12 11 9 5 2 4 3 8 13 12 8 7 11 13 13 14 12 10 8 7 5 6 6 5 5 6 6 10 18 18 7 8 13 18 17 10 16 17 13 13 9 7 6 6 9 7 10 17 19 22 28 27 20 16 15 16 20 27 31 32 32
12 12 11 11 10 10 10 9 10 9 9 9 9 10 10 10 10 10 10 11 11 11 12 12 13 13 14 13 12 9 8 10 12 12 15 15 12 10 7 10 13 14 15 14 13 11 8 6 7 9 5 5 7 8 11 13 16 12 7 8 15 19 16 20 19 16 16 13 13 11 8 10 10 10 12 21 34 36 31 26 21 20 18 17 22 30 33 34
14 13 13 13 12 12 12 12 12 11 11 11 10 11 11 12 12 12 12 12 12 12 13 13 13 13 13 13 12 8 11 13 12 11 12 11 11 11 8 10 12 15 15 14 14 12 11 9 10 11 6 6 6 6 7 5 8 10 8 9 11 15 17 19 17 18 18 16 18 13 11 17 19 14 13 26 38 36 31 29 27 25 26 25 23 26 30 33
15 15 14 14 14 14 14 14 14 14 14 13 12 12 12 13 13 13 14 14 14 14 14 14 13 14 13 13 10 8 12 14 10 9 10 10 11 11 9 11 13 15 15 15 14 13 13 11 11 10 5 7 6 7 7 3 4 8 10 10 9 12 17 18 19 22 21 18 16 10 13 21 22 14 17 35 41 36 34 32 30 27 28 31 30 29 30 32
16 16 16 15 15 15 16 16 16 16 16 15 15 14 14 14 15 15 15 15 16 16 16 15 15 14 13 13 7 6 13 15 12 13 12 11 13 12 12 12 13 16 16 15 14 15 16 12 10 9 8 8 6 9 8 4 4 6 9 11 13 17 20 21 21 27 24 19 17 13 12 18 15 6 12 36 35 24 27 28 29 29 30 33 33 34 33 34
18 18 17 17 17 17 17 17 18 18 18 18 17 17 16 16 16 17 16 16 17 18 18 17 17 15 14 14 10 10 17 19 17 17 15 15 16 15 14 12 13 15 16 17 16 16 16 14 11 9 8 6 5 8 9 8 6 8 9 11 17 16 20 23 20 26 20 14 21 18 9 13 8 5 19 41 32 16 19 21 23 26 32 34 34 36 35 36
21 21 21 20 20 20 19 19 20 20 20 20 19 19 19 19 19 19 19 18 18 18 19 18 17 16 14 15 18 20 22 21 19 18 17 18 19 18 16 14 14 14 16 17 17 16 15 15 14 11 9 5 3 4 6 7 7 10 7 6 15 9 13 24 20 24 17 8 17 13 3 11 6 13 34 45 35 24 23 23 23 25 29 33 35 37 37 38
22 23 23 23 23 23 23 23 22 22 23 22 22 22 21 22 21 21 21 20 20 20 20 19 18 16 13 16 25 25 22 21 20 19 19 19 20 20 18 16 15 15 16 17 17 16 15 15 15 15 14 10 5 4 6 9 9 10 3 2 9 6 8 19 15 18 15 8 13 14 1 11 10 22 38 38 32 30 27 28 30 28 29 30 33 36 37 38
22 22 22 23 23 23 24 24 24 24 25 24 24 24 24 24 24 24 23 23 22 21 21 19 18 15 12 18 26 25 23 23 23 21 21 21 22 22 20 17 16 16 16 16 17 17 16 14 14 14 14 13 10 9 8 8 6 4 2 1 4 3 7 12 6 7 6 6 17 16 3 11 11 20 30 29 27 26 26 31 33 32 33 32 32 35 36 37
20 21 21 21 22 22 23 24 24 25 25 25 25 24 24 24 25 25 24 24 24 23 22 20 17 13 12 20 26 23 22 23 22 21 20 21 22 22 20 17 16 17 16 16 16 16 16 13 12 10 9 12 10 6 4 5 4 1 1 4 3 4 7 11 8 7 6 5 16 14 3 11 14 19 28 27 23 25 27 31 32 33 35 34 35 36 37 37
20 20 21 21 21 22 23 23 24 25 25 26 25 24 24 23 24 24 23 23 22 22 21 16 15 11 8 15 21 20 21 22 21 21 20 20 21 20 18 16 16 16 16 15 14 14 13 11 10 8 7 7 4 2 3 4 5 2 4 6 5 5 6 8 8 6 9 6 9 10 5 8 10 13 22 19 18 24 25 28 31 32 34 35 36 37 38 38
19 19 20 20 21 22 23 23 24 25 26 26 26 25 24 24 24 24 22 22 21 20 17 12 9 8 10 15 20 23 25 24 22 21 21 20 19 18 16 15 14 13 12 12 13 11 10 9 7 5 6 4 3 5 2 3 6 4 3 5 6 7 6 6 6 1 8 8 7 11 8 11 12 9 15 15 14 18 22 26 30 32 34 35 36 37 39 39
17 18 18 19 19 21 21 22 23 25 25 26 26 26 25 24 25 24 22 21 18 13 11 11 7 2 10 16 17 20 21 18 16 16 17 17 16 16 15 14 11 9 8 7 9 9 9 7 6 2 3 3 3 5 4 7 8 4 5 5 5 7 7 10 8 2 7 6 6 8 8 15 17 13 20 26 24 18 19 25 29 32 34 35 36 38 40 42
15 15 16 17 17 18 19 20 22 23 25 25 24 24 24 23 21 20 17 14 11 7 6 11 13 5 7 11 12 14 15 14 11 12 15 15 14 14 14 12 9 9 6 3 5 9 11 4 3 2 4 7 7 8 11 13 10 8 8 6 7 7 8 12 11 6 8 5 6 10 12 15 18 17 19 30 34 25 23 25 26 31 34 36 38 40 42 42
12 13 14 14 15 16 17 18 18 19 21 22 22 21 17 13 9 9 9 12 15 13 13 14 17 16 14 12 13 14 16 16 15 16 16 14 13 13 16 12 8 8 6 4 3 8 13 6 3 6 11 12 9 11 15 14 10 10 9 9 10 9 11 13 11 7 8 6 8 12 15 15 17 19 16 24 28 22 23 23 25 30 34 37 39 41 43 45
10 11 11 12 13 14 15 15 16 16 17 18 18 15 9 5 4 6 9 14 20 22 23 22 21 24 23 19 18 18 18 18 20 21 16 15 14 11 14 13 6 5 7 6 3 4 9 6 7 14 16 12 8 11 13 12 10 11 10 10 10 8 12 15 9 7 7 5 8 11 14 16 16 18 17 18 15 14 22 22 25 31 32 36 39 41 45 47
10 10 11 11 11 13 14 15 15 14 14 14 13 10 6 6 7 10 10 12 21 25 25 26 26 29 28 26 26 24 21 19 21 23 19 18 18 13 11 12 7 4 5 5 4 3 4 5 12 18 14 8 7 8 9 10 10 10 8 8 8 7 11 12 8 7 4 5 8 9 12 13 14 17 16 14 12 17 29 29 32 35 30 33 39 41 45 46
10 10 11 11 11 12 13 15 14 12 14 12 10 9 6 7 8 11 9 8 17 23 25 28 29 30 30 29 30 29 26 23 21 22 24 22 21 17 13 11 7 4 5 8 8 6 5 7 15 17 10 8 11 9 7 8 8 8 9 8 9 7 8 10 6 4 3 4 6 7 9 9 9 13 14 18 21 23 32 35 39 41 34 36 43 43 44 44
12 11 12 11 11 12 13 13 11 12 16 14 10 9 8 8 7 9 9 7 8 14 23 28 27 30 33 30 29 30 31 27 21 19 26 27 21 15 13 10 6 4 8 12 13 13 10 8 13 14 10 11 13 10 7 7 8 11 11 8 11 11 11 13 7 4 4 4 5 6 9 8 8 13 14 16 20 21 27 31 34 40 40 42 47 46 46 46
14 13 13 13 11 11 13 11 9 12 15 12 11 10 10 9 6 7 8 6 5 7 14 18 19 24 30 28 26 26 21 20 20 19 22 27 24 13 7 10 8 7 12 12 11 11 11 11 10 9 9 12 11 9 8 8 9 11 8 11 15 15 13 14 8 7 5 6 4 3 8 8 8 14 15 11 10 12 17 20 24 35 40 38 43 48 48 47
16 16 15 15 13 12 12 10 10 13 12 10 13 12 10 8 5 8 6 3 4 4 4 6 9 10 14 18 23 19 9 11 17 21 20 22 27 18 6 7 7 7 9 7 6 4 7 12 11 10 11 11 9 7 8 11 10 9 6 11 14 12 11 11 6 3 4 6 4 3 3 8 5 8 11 9 8 11 11 12 17 27 32 33 39 46 45 43
18 17 16 17 16 14 12 11 11 12 11 10 13 12 10 6 4 6 5 3 4 4 5 6 6 5 5 10 19 16 3 4 9 15 20 20 24 22 10 6 5 5 5 3 4 4 5 9 10 12 12 8 7 9 9 10 8 8 3 7 9 8 9 7 4 4 4 5 4 2 2 8 11 7 10 11 11 12 12 12 13 19 27 32 37 42 41 40
19 19 18 18 18 15 13 13 11 10 10 11 13 11 7 3 2 4 2 3 3 5 4 5 6 5 6 10 20 17 2 2 4 7 17 20 19 16 10 8 5 3 4 5 6 5 3 6 8 11 8 7 8 9 9 10 7 6 1 4 4 4 4 1 1 3 2 5 5 3 5 4 15 8 10 13 12 12 14 15 14 15 25 32 36 40 40 38
19 20 20 19 20 19 15 14 12 9 9 11 12 10 4 0 2 4 2 3 3 2 2 5 6 5 6 9 14 15 4 1 1 4 12 15 16 11 3 5 4 4 4 5 8 6 1 3 5 7 6 8 7 3 4 9 7 4 4 3 4 4 3 5 1 0 3 5 6 5 7 3 15 9 7 8 9 10 13 14 13 15 25 32 35 39 39 37
19 20 21 20 22 21 18 16 13 10 9 10 11 8 1 1 2 3 3 4 2 1 3 5 4 4 8 6 5 11 6 1 1 5 7 8 11 8 2 1 2 3 5 5 7 9 3 2 1 4 5 5 4 3 2 4 3 1 6 5 6 5 5 4 1 4 2 9 6 9 12 7 10 6 7 6 6 11 11 9 11 14 20 30 36 38 37 35
18 18 19 21 23 22 21 20 16 11 8 8 9 3 2 2 3 2 6 3 1 2 2 2 2 3 7 4 2 5 4 2 3 6 5 3 4 4 2 1 1 2 3 5 7 9 5 2 2 4 5 5 6 3 2 3 2 4 5 4 4 5 4 5 4 4 2 10 4 12 14 11 10 6 2 3 4 9 11 9 11 12 16 27 36 36 34 31
21 20 19 20 21 22 23 23 19 15 9 5 4 2 4 1 1 6 5 3 1 3 2 3 3 2 4 3 2 3 3 3 4 6 5 3 3 4 3 5 4 2 4 5 4 5 6 8 7 3 4 7 6 2 3 5 3 5 4 4 1 5 3 3 4 0 4 8 5 10 9 8 13 7 2 7 6 5 8 9 13 14 16 28 34 33 31 30
25 23 23 22 20 20 22 22 22 18 11 5 2 4 5 0 5 6 4 1 3 3 2 2 4 4 3 1 3 4 3 2 5 5 3 3 3 4 4 5 6 2 4 5 2 3 4 8 6 3 3 9 10 5 3 3 3 6 6 6 4 3 1 3 4 3 5 7 5 6 7 5 10 5 7 13 11 11 14 17 23 23 23 29 33 31 28 28
26 24 25 25 22 20 19 21 22 19 13 9 6 5 4 4 6 1 4 6 5 3 0 1 3 3 3 3 5 5 3 4 5 5 2 3 2 3 4 6 7 4 2 3 2 2 4 9 6 8 4 10 14 12 12 5 4 7 6 6 5 4 4 4 5 7 7 6 6 3 6 5 6 3 8 11 11 13 18 25 29 29 28 29 31 31 29 28
21 22 23 24 24 22 19 21 21 19 17 10 8 5 3 6 4 1 3 5 4 4 4 3 3 3 4 4 4 4 6 5 3 6 4 4 4 5 4 6 10 7 3 3 3 4 6 10 7 7 3 11 13 12 11 6 1 4 5 5 4 5 7 5 6 8 3 3 6 3 5 6 5 6 8 8 10 10 13 20 21 24 29 28 28 32 33 30
20 21 22 24 26 23 21 21 19 20 19 13 8 1 7 6 4 3 3 3 2 3 5 5 1 3 4 3 4 5 6 5 2 4 3 4 4 5 4 4 10 12 8 6 3 3 5 7 3 2 2 5 6 4 6 5 3 2 4 4 5 4 7 5 6 4 2 4 8 6 7 6 6 10 8 6 10 8 7 11 12 18 28 28 28 34 34 30
21 21 23 26 26 23 21 19 18 22 21 13 5 5 7 5 5 6 2 2 2 3 3 4 2 4 4 2 2 4 4 4 3 3 3 3 3 5 6 5 10 15 16 12 5 4 7 6 3 5 3 4 2 1 1 2 3 6 4 6 1 3 2 3 1 2 2 7 8 9 14 10 6 10 5 3 5 7 8 10 10 15 23 23 27 34 34 30
19 20 23 26 25 21 19 16 17 23 18 9 7 9 6 4 6 7 6 5 5 3 2 2 4 3 3 3 3 3 2 2 3 3 3 3 4 6 6 5 8 16 23 20 7 4 5 7 6 5 5 3 1 1 3 3 2 5 3 2 4 1 2 2 3 3 5 8 7 10 16 12 8 10 8 4 6 9 10 12 13 14 15 17 26 35 34 28
18 16 18 19 15 12 13 16 22 24 14 5 8 9 4 4 6 8 8 4 1 1 1 5 6 3 5 6 6 4 3 4 3 2 3 3 4 4 5 5 6 11 21 21 9 4 4 5 6 2 2 1 2 1 4 3 1 2 1 2 1 3 4 3 4 3 5 9 8 10 12 11 9 7 7 8 8 9 9 10 11 11 14 21 28 34 32 27
15 11 11 11 6 5 9 17 24 21 8 3 7 6 3 3 6 11 14 10 4 3 4 5 6 6 7 8 9 6 4 4 3 2 3 3 4 2 2 1 3 4 10 12 8 6 3 5 8 2 2 1 2 4 8 8 5 3 2 3 3 2 2 1 3 3 4 7 7 8 8 10 9 3 1 6 5 7 8 8 9 11 17 26 29 30 31 30
11 7 9 11 7 8 16 20 16 10 3 4 5 5 5 4 5 8 14 14 10 7 6 4 4 5 5 6 7 5 2 2 2 3 3 4 7 4 3 5 6 6 4 2 4 4 1 3 6 1 0 4 5 4 6 10 9 7 7 8 7 6 3 3 6 4 3 5 6 8 9 9 9 6 4 6 5 5 6 7 7 11 18 25 30 35 36 33
10 7 8 12 11 16 23 15 6 6 4 4 5 5 5 6 7 7 10 12 9 7 5 4 6 6 6 7 8 7 4 3 5 5 4 7 9 6 2 4 6 7 6 2 4 3 1 1 4 4 4 6 6 4 2 6 5 2 3 6 6 6 5 6 9 6 4 6 6 8 10 7 9 14 14 12 10 8 9 10 8 13 24 29 32 38 36 32
11 10 9 10 14 21 20 6 4 7 3 3 6 7 8 6 5 6 8 9 8 6 5 5 7 9 9 8 8 8 6 6 8 9 8 7 9 14 18 20 16 8 5 3 3 2 2 1 2 5 5 6 7 6 3 1 2 1 3 3 3 4 5 7 6 4 6 8 7 9 11 6 6 14 14 12 12 9 10 13 10 14 25 29 30 31 30 30
11 13 12 13 18 23 16 4 4 6 4 5 5 7 10 7 6 9 8 7 7 5 5 7 8 10 8 6 6 7 6 6 8 10 10 7 8 18 27 30 24 9 2 6 4 1 1 1 1 2 4 6 6 7 7 4 2 2 3 4 5 7 7 6 3 3 6 10 10 11 11 6 8 13 13 15 19 16 14 17 15 16 20 22 22 22 22 24
7 10 13 18 26 28 18 10 10 6 6 10 10 9 10 7 9 19 18 12 12 9 6 6 7 8 8 7 8 10 11 10 8 7 8 6 6 12 22 29 25 15 14 17 14 9 4 4 3 5 7 8 8 7 7 5 2 1 2 5 7 10 11 9 5 6 8 10 13 12 11 10 11 12 16 21 24 23 21 21 21 22 24 24 26 28 29 29
4 4 7 13 25 30 23 19 18 10 6 9 8 9 13 10 10 20 21 15 17 18 11 6 4 4 6 10 12 12 13 13 11 7 6 7 5 5 14 23 22 19 20 20 18 11 2 4 9 13 14 13 14 14 8 5 5 6 9 11 11 11 13 10 7 9 11 11 13 13 15 18 16 13 18 23 24 26 26 21 19 24 28 31 33 35 36 37
4 3 3 4 12 20 19 18 18 11 8 11 6 4 13 14 8 12 16 14 15 17 12 7 8 8 8 11 13 13 13 14 14 13 11 11 8 5 9 13 14 18 18 14 17 11 1 5 13 18 20 19 18 19 16 12 13 15 17 19 19 17 15 13 12 14 14 12 13 15 19 21 18 17 21 25 27 28 25 20 20 23 27 30 33 32 31 35
6 5 5 4 3 6 7 9 10 7 7 11 7 5 12 15 11 9 10 11 13 13 8 7 13 16 16 17 14 11 12 12 13 15 14 12 10 8 9 8 11 17 14 9 12 10 2 8 14 17 22 21 20 21 21 19 19 20 20 22 23 23 21 19 19 20 17 16 16 17 20 21 18 18 23 26 27 27 26 28 29 27 28 32 33 31 31 34
8 7 8 7 4 5 7 7 7 7 6 6 4 5 8 11 12 8 4 5 6 9 10 10 13 16 19 20 16 13 13 13 14 14 11 11 11 10 9 9 12 16 13 7 6 7 4 8 12 16 20 20 21 23 23 24 23 21 21 22 22 23 23 22 22 22 22 23 22 21 24 24 19 18 22 28 30 28 28 33 34 32 36 40 38 33 33 37
7 6 7 7 4 8 13 11 7 5 5 5 4 4 5 7 8 7 4 3 3 2 7 11 10 8 9 10 12 13 13 11 12 10 7 7 6 5 5 6 7 8 9 6 5 6 8 10 11 13 14 15 19 21 21 22 23 23 23 23 22 23 23 23 22 20 20 23 24 25 26 22 18 19 24 28 29 26 24 28 32 39 45 44 39 35 31 33
9 8 6 6 3 6 9 8 4 4 4 5 4 4 5 5 5 7 4 7 8 5 4 7 8 7 8 8 9 9 10 11 11 11 12 11 9 9 8 6 6 5 4 5 4 5 7 8 8 9 10 11 14 18 21 22 23 24 24 23 23 23 22 21 20 19 20 22 24 24 21 16 16 21 23 23 24 23 22 24 29 40 49 45 38 35 32 31
9 10 8 5 3 5 6 3 2 4 5 6 6 4 4 4 7 7 4 5 6 5 8 9 7 6 7 8 7 10 16 18 18 21 24 21 18 18 18 17 15 10 5 3 3 4 6 6 7 8 10 9 11 17 20 18 16 16 17 22 27 27 24 23 20 21 22 21 19 17 16 16 18 18 19 20 22 21 20 24 30 38 45 43 38 36 36 37
Wind_Direction
335 340 343 346 351 354 357 0 3 6 8 10 10 12 14 14 13 5 355 347 340 337 335 333 332 331 325 316 306 295 289 283 283 277 268 267 267 268 269 273 277 275 284 285 292 303 183 114 142 207 207 232 250 252 236 223 215 196 119 156 237 226 213 208 206 246 204 217 232 205 202 189 234 235 223 245 240 237 232 223 223 222 228 238 245 247 243 233
327 331 333 338 341 344 351 353 357 360 2 4 6 6 6 10 10 9 5 357 348 340 336 331 328 326 322 319 314 306 296 289 285 274 268 269 262 261 264 268 269 257 254 259 264 275 238 104 357 248 218 229 247 242 224 212 199 191 158 170 228 213 220 241 255 264 254 219 207 201 210 205 238 243 217 237 244 232 233 235 228 229 233 236 242 244 244 239
317 322 325 329 331 336 341 345 351 353 357 358 360 1 0 3 4 7 5 0 358 350 345 339 333 328 323 318 316 311 301 296 287 282 283 273 259 254 255 256 256 251 247 252 260 281 286 235 268 263 228 234 244 228 212 198 199 207 195 212 244 225 248 278 292 290 274 256 223 235 225 216 240 235 204 222 252 238 225 234 223 223 232 234 239 240 239 238
308 312 315 319 321 326 330 336 342 343 349 350 352 356 355 356 357 360 0 360 359 355 352 347 344 337 330 323 319 312 310 307 292 295 339 316 268 251 246 247 250 248 244 249 259 272 288 231 239 248 228 237 243 230 217 206 205 198 184 205 239 228 272 275 288 297 278 279 262 278 270 253 253 232 217 217 253 258 233 238 235 235 242 237 234 238 239 238
302 304 306 310 310 315 319 324 329 333 337 337 341 342 344 347 346 349 351 353 352 352 351 348 347 343 336 328 321 313 321 329 299 64 38 357 338 281 247 243 244 245 244 244 250 249 250 231 227 240 235 244 244 226 225 218 211 203 213 223 238 245 276 274 284 288 274 279 270 268 273 273 264 234 230 215 217 249 245 249 250 251 255 247 241 240 237 238
297 297 298 300 301 304 307 312 316 319 322 325 329 328 331 332 333 337 336 340 341 341 341 341 342 340 336 330 322 312 296 283 273 286 313 317 324 314 270 246 240 240 243 240 242 241 245 243 224 236 233 240 239 220 244 232 214 221 248 234 243 246 252 270 277 280 275 269 259 262 263 266 261 251 244 226 234 251 256 258 256 257 261 255 250 242 237 238
293 293 294 294 295 295 297 301 302 304 308 311 314 315 318 318 321 322 322 327 326 329 330 330 333 332 332 327 321 307 263 267 288 291 298 306 309 306 282 251 239 236 240 239 239 237 240 237 227 241 231 239 243 230 260 251 212 214 258 254 255 255 256 268 277 280 273 264 263 266 267 263 247 253 256 239 247 257 259 258 253 256 262 258 248 240 240 242
291 292 293 293 293 293 293 293 293 295 296 297 301 302 305 307 309 311 312 315 315 319 319 320 324 323 327 322 315 296 267 285 308 300 296 303 302 301 281 253 240 237 240 239 241 236 236 234 237 247 241 242 245 242 277 290 215 214 245 260 265 268 267 272 282 282 275 270 270 264 255 256 249 256 267 254 257 261 259 259 256 254 256 256 250 244 242 243
290 290 291 292 292 293 292 292 291 291 291 290 292 292 294 297 298 301 303 306 308 310 311 314 316 316 319 311 303 287 281 300 320 312 305 301 294 296 282 257 243 241 240 240 240 232 231 232 237 240 245 259 261 275 287 306 239 217 235 259 280 282 279 280 282 280 278 274 263 246 250 256 256 266 273 262 261 263 261 260 259 253 250 249 249 248 246 245
291 290 290 291 291 293 292 292 292 291 291 290 290 289 291 291 291 293 294 298 301 303 306 308 311 313 311 299 280 266 291 304 311 307 305 295 289 291 284 268 253 248 244 244 239 232 233 231 235 240 259 274 269 274 276 264 252 246 263 284 286 283 286 284 280 278 278 276 255 227 248 261 257 254 267 267 267 265 261 258 257 251 246 246 246 247 248 249
292 292 292 292 292 294 293 293 292 292 291 291 291 290 290 290 290 289 289 293 294 297 300 302 307 308 305 293 253 250 290 300 301 300 294 289 288 284 282 273 261 253 248 248 241 238 238 233 239 248 260 270 270 279 276 260 261 285 305 309 287 288 295 283 276 276 274 275 251 222 243 275 261 203 247 264 268 262 257 258 255 245 243 244 244 246 247 249
293 293 294 294 295 294 294 293 292 292 291 291 292 291 292 291 290 290 289 290 291 293 294 297 301 301 303 285 262 271 292 296 295 292 286 286 283 279 279 271 263 255 248 247 241 237 233 233 239 242 247 255 285 306 284 273 287 295 310 314 289 309 302 277 269 267 257 259 242 199 257 282 237 226 247 261 266 260 257 258 256 247 244 243 243 246 247 251
295 295 296 296 297 297 296 295 293 293 292 292 292 292 292 291 291 291 289 289 290 290 291 293 293 295 290 273 275 285 292 291 289 285 282 281 278 275 275 268 263 254 247 245 240 234 229 233 240 243 249 252 265 274 277 298 307 295 286 218 284 329 297 271 265 254 244 241 207 159 203 269 238 242 251 264 268 260 255 253 253 249 246 244 243 245 247 251
297 298 298 299 300 300 299 298 297 296 295 294 294 294 293 292 292 290 290 290 289 288 289 288 287 287 271 270 284 288 285 284 281 279 278 275 273 272 271 267 261 252 246 244 239 235 231 231 239 247 250 247 256 272 290 311 300 282 301 216 259 292 276 272 261 218 224 217 179 157 227 257 256 258 258 268 265 255 249 248 249 246 246 245 243 244 247 250
297 298 299 301 301 301 300 300 299 298 298 297 297 297 296 295 293 292 291 290 289 289 287 284 281 276 262 273 284 284 280 277 274 276 274 269 269 269 268 264 256 248 244 243 240 239 237 232 233 239 247 251 257 275 319 328 293 237 245 280 256 210 262 280 271 207 204 205 168 159 220 254 262 267 268 271 262 248 240 245 248 244 244 243 244 245 246 251
295 296 298 300 301 301 301 300 300 299 299 298 298 299 299 299 296 295 294 290 289 287 283 279 273 265 259 279 282 278 275 271 272 274 267 266 266 265 264 257 249 243 239 240 239 238 236 231 230 232 240 253 229 146 24 344 303 291 200 251 260 233 265 289 287 224 188 170 174 191 212 249 259 266 268 266 257 247 234 241 246 244 246 243 244 245 245 252
294 295 297 299 300 301 301 301 301 299 299 299 298 298 298 299 297 297 295 290 285 278 272 263 263 260 252 269 276 274 274 272 272 269 263 264 260 258 257 249 240 235 233 232 233 227 218 211 205 228 241 236 155 120 59 296 269 288 222 237 250 245 263 270 296 302 161 153 199 223 226 246 252 267 269 256 255 249 229 235 242 242 247 246 246 245 245 250
298 299 300 301 302 303 302 302 301 300 300 299 300 299 299 299 297 296 291 285 276 267 261 230 202 250 255 257 268 273 279 277 271 265 260 255 250 251 248 243 234 220 213 220 227 204 193 202 175 191 276 220 177 143 172 236 237 242 226 237 254 248 255 256 270 218 161 171 207 222 237 250 256 265 264 259 261 257 233 233 240 242 246 248 249 248 249 250
308 308 308 308 309 308 307 306 305 303 301 299 300 300 300 300 297 293 286 271 246 232 256 212 188 203 258 260 268 272 277 275 266 255 248 242 241 241 231 226 214 194 184 188 223 190 178 181 129 156 257 225 201 179 203 229 231 235 239 244 255 256 257 256 263 223 176 194 215 219 235 244 253 256 253 256 259 260 253 244 240 242 245 248 250 250 252 252
318 320 319 320 322 319 317 316 314 311 307 303 302 303 306 309 305 297 279 253 242 250 264 237 216 232 251 265 271 269 267 264 259 250 245 242 236 227 215 205 187 194 195 157 183 191 178 172 158 198 232 228 205 198 217 233 239 250 257 258 256 259 265 259 265 246 187 197 223 220 236 242 248 255 249 250 253 258 259 252 243 242 243 246 248 250 251 253
331 333 332 336 338 334 331 331 329 325 321 316 315 319 322 319 301 290 287 274 269 268 265 258 248 249 256 261 260 263 264 260 257 248 245 242 225 213 205 189 167 204 211 180 195 206 176 180 212 217 232 233 206 203 221 234 241 251 253 260 260 248 264 262 259 255 191 196 247 231 242 249 247 256 257 248 243 245 250 251 249 246 242 245 249 251 253 256
335 337 340 346 351 348 344 344 341 336 335 330 330 339 329 298 280 277 292 288 278 273 266 265 259 253 257 256 252 256 254 251 250 240 236 232 214 205 192 178 188 201 176 191 241 254 197 218 227 225 235 245 233 217 221 232 233 244 246 257 264 247 270 268 246 255 203 186 254 247 246 253 249 255 260 252 236 237 244 247 252 253 248 248 252 253 255 258
328 333 337 345 355 353 350 351 349 347 347 341 341 352 336 307 290 286 293 283 280 278 268 263 257 250 249 247 245 242 237 238 241 234 235 227 205 202 194 177 193 177 158 199 212 221 224 231 229 228 233 239 249 240 231 253 247 241 243 251 262 251 265 268 243 253 226 202 256 264 257 256 257 263 263 254 246 245 248 248 252 255 254 255 256 256 256 258
319 324 327 336 349 351 350 355 359 356 350 347 349 348 338 323 297 299 302 274 275 277 269 264 257 250 246 244 241 233 231 237 238 234 233 222 200 198 205 189 172 180 210 211 209 224 239 233 218 217 222 227 244 243 228 255 258 243 234 231 251 249 245 255 269 305 289 279 281 281 284 269 234 248 257 253 248 247 249 250 252 254 253 255 259 260 258 257
311 314 319 325 336 344 347 352 0 357 351 349 349 341 338 331 300 312 323 292 271 271 271 263 249 246 245 243 235 227 233 243 241 239 233 222 209 199 200 188 179 212 226 222 221 234 248 242 212 199 221 224 232 242 216 216 252 259 227 212 238 247 247 256 286 330 315 295 278 240 280 275 205 221 244 251 248 246 245 245 248 251 251 250 254 258 259 258
305 309 313 315 323 336 339 344 352 352 351 346 344 340 331 324 307 321 334 319 278 253 230 218 220 235 235 231 221 216 250 261 241 239 233 227 221 212 196 181 193 226 217 217 240 239 237 231 206 198 220 218 220 244 217 201 239 270 227 207 229 243 256 263 278 309 268 267 272 144 242 276 243 211 230 236 240 249 246 240 243 248 250 246 247 252 256 258
297 301 307 310 315 324 327 331 339 348 352 342 340 337 324 319 330 337 345 327 281 196 166 184 186 190 200 202 193 188 243 249 217 225 214 213 215 209 211 200 197 220 176 156 259 242 211 211 203 211 221 212 214 241 222 190 221 269 236 197 217 236 252 258 241 222 238 277 284 143 132 286 278 235 206 211 222 240 247 247 247 245 246 245 245 248 250 253
291 295 300 302 305 309 315 318 325 344 347 340 341 333 323 324 346 14 44 292 272 145 145 192 178 196 199 179 183 186 193 145 161 203 196 196 198 196 219 220 190 207 166 159 238 248 192 199 208 204 206 210 215 234 208 171 209 259 135 166 183 206 229 124 135 232 305 329 281 196 123 290 281 251 183 200 210 222 237 240 244 243 243 243 244 247 248 250
285 289 294 297 298 299 304 306 312 334 338 343 344 329 321 302 344 33 106 255 272 144 149 178 181 211 185 164 194 210 217 111 175 186 180 191 194 183 216 225 199 257 253 216 234 257 239 199 200 170 182 220 214 226 172 163 217 240 95 75 59 55 46 66 64 76 35 306 262 191 146 223 281 273 159 187 209 209 226 233 234 235 238 242 245 249 251 252
277 282 288 289 289 293 297 296 297 316 330 343 343 329 333 119 50 35 237 249 301 236 140 158 193 180 149 141 222 228 220 211 131 149 164 187 198 189 105 111 180 249 279 279 257 258 256 77 131 179 196 205 149 90 87 142 209 133 79 45 24 8 23 50 12 69 47 276 241 179 172 180 273 289 136 170 206 199 209 221 234 239 237 243 248 250 253 255
267 271 274 275 279 285 286 285 291 302 312 338 347 341 144 84 74 163 236 255 322 251 111 160 222 135 154 172 236 217 205 222 152 152 176 177 184 189 127 118 106 57 325 299 276 268 258 216 234 215 189 142 99 80 11 31 82 90 81 66 14 325 13 29 351 58 219 265 220 181 181 179 234 271 112 247 255 204 205 203 220 236 238 242 246 250 253 252
263 261 261 263 271 275 273 276 284 287 290 325 357 117 130 23 240 214 237 356 335 225 166 193 197 164 205 244 298 203 175 210 186 170 185 166 161 186 192 197 165 83 291 253 267 291 263 231 214 191 189 169 131 84 340 347 48 96 98 104 33 301 346 357 309 74 225 257 228 189 178 199 240 262 278 274 284 231 221 213 216 224 232 240 243 246 250 248
264 264 263 262 265 272 272 272 272 270 270 267 210 122 98 179 239 220 205 226 242 208 156 181 183 173 165 104 274 216 184 230 192 181 191 157 175 227 249 228 176 183 252 219 265 309 286 268 202 151 253 191 164 170 235 275 175 156 146 146 170 220 244 265 259 268 264 264 253 190 163 242 275 281 227 234 237 222 216 219 222 220 227 242 243 242 248 248
263 263 264 265 266 269 271 272 268 264 258 231 179 106 103 215 245 230 168 208 243 253 256 87 146 179 178 205 232 189 190 250 179 166 187 145 169 236 244 238 210 208 218 204 265 189 249 288 197 161 218 183 176 205 209 174 153 182 158 143 178 180 178 219 242 260 275 286 278 185 155 248 292 281 214 223 240 236 223 222 226 224 230 246 249 244 249 250
265 262 262 266 266 263 265 266 266 262 246 201 135 101 181 221 250 273 216 236 267 285 296 347 113 186 240 252 258 208 210 248 167 149 184 175 188 211 197 207 205 193 149 202 251 176 219 272 222 168 148 160 179 219 202 139 85 217 131 121 214 195 182 221 253 246 249 313 285 226 196 239 268 270 247 242 259 258 237 229 228 230 235 245 251 247 247 246
267 265 263 264 263 264 264 260 261 256 231 172 117 167 215 220 212 183 219 232 243 320 323 323 148 188 257 272 277 247 216 233 201 156 205 206 204 213 200 196 195 190 183 195 229 206 231 277 235 144 33 170 188 226 183 166 204 189 136 181 216 165 165 210 272 271 177 259 271 258 249 272 309 291 269 241 251 261 263 249 237 236 236 239 244 244 243 240
269 268 265 261 261 266 264 257 253 242 216 171 152 217 212 232 214 202 258 313 293 326 343 298 240 195 238 242 246 248 225 235 209 168 214 227 223 213 206 216 194 188 199 206 224 241 235 264 230 171 228 248 216 60 289 242 154 131 179 214 159 56 115 158 232 308 245 248 263 268 269 281 294 283 307 35 263 260 262 256 245 240 238 238 242 242 240 237
275 275 271 267 266 264 257 252 242 224 200 173 222 226 211 220 196 203 247 280 289 313 60 265 256 224 252 272 278 263 230 234 194 178 216 226 232 202 183 219 203 192 207 211 224 267 228 253 257 182 193 248 62 87 287 298 147 143 205 216 103 131 226 156 171 207 238 246 255 265 272 275 255 262 300 316 251 241 238 236 237 241 241 243 245 244 242 235
277 279 276 275 271 257 247 239 221 204 184 179 230 225 216 219 214 220 233 247 287 92 200 237 234 247 275 272 277 273 216 213 197 205 229 220 240 208 167 220 224 205 211 206 209 248 211 235 252 200 184 275 57 177 209 225 226 97 17 345 58 182 185 180 182 165 221 242 254 262 269 275 258 252 288 280 246 237 244 239 238 240 240 241 243 245 245 237
269 268 268 264 249 231 224 211 201 191 180 215 222 219 223 240 250 243 238 237 216 186 228 233 219 239 259 260 267 267 235 226 209 223 239 233 262 290 72 317 328 292 235 212 217 238 206 233 240 231 19 260 196 202 188 184 189 170 208 243 253 225 173 222 221 167 215 240 252 255 256 268 264 219 306 296 263 235 241 241 245 245 241 243 246 250 250 244
253 251 254 241 219 198 191 186 185 187 203 235 228 234 232 234 254 241 232 232 229 228 233 225 222 239 255 259 259 256 254 262 231 239 255 249 256 274 53 53 36 5 325 265 256 263 236 247 248 247 2 239 250 246 198 195 191 181 198 207 209 213 203 253 246 212 211 237 242 253 255 261 271 276 295 299 286 258 244 235 246 254 250 253 256 254 250 246
226 236 242 229 215 192 182 177 187 201 202 217 230 233 215 221 241 238 230 228 227 235 237 234 240 243 249 250 245 243 245 233 224 228 225 230 240 243 264 351 359 4 359 316 257 263 140 200 268 277 253 251 282 310 223 222 222 205 220 215 214 211 188 220 244 234 236 248 242 256 258 249 265 278 284 287 288 288 267 246 237 245 252 257 258 253 249 248
222 240 244 240 231 202 186 185 224 206 210 240 235 230 213 209 227 235 233 223 212 210 211 217 225 227 233 236 231 230 228 220 216 218 224 229 236 243 254 273 290 321 5 298 272 347 25 146 253 280 293 298 304 318 338 34 77 334 279 237 211 221 212 224 245 256 255 255 251 258 260 248 258 272 281 289 289 292 281 268 262 255 256 258 256 251 248 248
239 250 246 236 220 201 192 205 222 210 225 231 234 238 231 229 235 237 234 210 196 198 215 222 216 219 225 221 219 218 213 226 228 220 225 224 228 240 247 256 263 259 195 215 200 105 288 221 107 284 287 295 302 300 284 261 170 192 232 231 222 231 244 253 274 281 255 250 249 258 265 259 256 269 283 288 284 284 279 272 271 269 270 275 277 272 264 259
254 252 243 228 209 203 208 216 217 226 224 224 235 234 234 243 230 231 238 234 221 212 215 230 220 221 224 218 230 230 218 228 242 227 219 218 229 239 237 240 241 233 226 218 188 161 200 201 182 230 242 246 250 252 247 237 236 249 227 230 229 224 229 239 247 248 245 242 241 247 259 256 251 264 277 277 277 278 273 266 263 261 265 273 280 280 278 276
271 247 236 223 209 214 226 228 226 234 222 225 237 223 227 241 234 230 234 239 236 228 229 245 232 227 226 220 236 243 230 229 234 225 212 217 228 231 225 228 227 224 233 223 186 162 158 184 201 222 226 229 237 238 230 208 220 250 248 241 239 232 227 229 232 238 243 246 242 236 245 254 250 251 264 268 271 272 271 268 263 258 259 262 265 266 268 271
269 259 229 215 211 221 234 236 233 234 219 223 229 204 224 234 240 232 222 223 231 226 227 236 218 218 230 227 237 246 238 234 234 235 237 230 233 254 237 227 223 223 228 211 182 171 139 200 208 223 228 228 234 238 239 239 238 245 250 249 249 245 236 232 234 237 239 249 250 238 237 247 249 244 252 260 264 266 269 270 267 263 262 260 260 261 263 267
238 271 268 288 272 228 230 241 252 263 244 234 229 226 239 238 233 226 216 222 225 209 207 236 221 220 229 232 241 250 244 244 241 238 242 237 234 254 250 232 226 222 211 186 183 176 188 227 215 226 234 231 234 239 241 246 246 244 245 247 248 247 242 238 239 240 238 243 251 247 243 247 247 243 246 251 255 260 267 271 274 275 273 267 264 265 267 269
247 277 285 294 305 298 301 309 314 306 282 272 256 231 245 247 244 252 257 256 238 201 204 228 225 225 232 233 238 243 237 244 247 240 244 249 237 235 243 247 242 225 203 190 196 175 194 236 219 226 239 235 231 234 235 239 244 246 245 244 244 247 247 244 244 245 244 247 254 258 256 254 251 247 248 249 253 259 269 276 280 279 274 270 268 266 265 269
248 265 295 313 307 296 299 303 316 316 294 293 280 240 254 265 271 296 308 272 294 262 235 251 261 268 271 264 260 255 250 263 275 275 298 307 278 256 254 254 257 239 209 205 214 189 208 231 219 224 242 237 230 233 232 232 239 244 245 245 245 247 249 249 250 249 250 253 254 254 255 257 254 253 254 255 260 266 271 275 276 274 272 272 272 271 268 268
247 259 292 319 302 276 281 278 289 308 281 257 248 257 274 276 302 331 311 246 245 252 282 309 324 337 335 318 301 294 306 318 317 313 316 311 296 294 293 281 284 281 222 206 219 198 208 233 233 234 249 238 223 229 233 232 235 238 239 242 244 244 244 243 243 243 244 249 253 252 253 254 249 250 255 259 263 263 263 265 268 270 272 273 275 277 274 269
259 265 272 287 273 250 260 284 299 278 265 254 264 292 304 333 1 358 326 280 267 293 341 351 347 331 321 314 316 329 326 317 306 301 298 289 279 277 278 278 278 276 255 228 243 213 205 228 229 230 249 244 220 226 233 233 235 233 226 228 233 237 241 243 244 244 241 243 248 248 246 247 248 250 254 257 257 255 255 256 258 263 268 273 276 278 275 270